HP1GDP-12 Weather Reports


time (UTC)temp
C
wind
direction
speed
KPH
gust
KPH
rain 1hr
cm
rain 24hr
cm
rain mn
cm
humidity
%
barometer
mb
20260503033710 30 0.0 0.0 0.00 0.00 0.00 31 1005.7
20260503030657 31 0.0 0.0 0.00 0.00 0.00 30 1005.6
20260503025653 31 0.0 0.0 0.00 0.00 0.00 30 1005.5
20260503024650 31 0.0 0.0 0.00 0.00 0.00 30 1005.5
20260503022641 32 0.0 0.0 0.00 0.00 0.00 32 1005.2
20260503021636 32 0.0 0.0 0.00 0.00 0.00 32 1005.1
20260503020632 32 0.0 0.0 0.00 0.00 0.00 33 1005.1
20260503015628 32 0.0 0.0 0.00 0.00 0.00 33 1005.2
20260503014624 32 0.0 0.0 0.00 0.00 0.00 33 1005.1
20260503013620 32 0.0 0.0 0.00 0.00 0.00 33 1005.1
20260503012616 32 0.0 0.0 0.00 0.00 0.00 33 1005.1
20260503011612 32 0.0 0.0 0.00 0.00 0.00 33 1005.1
20260503010608 32 0.0 0.0 0.00 0.00 0.00 31 1004.9
20260503005603 32 0.0 0.0 0.00 0.00 0.00 33 1004.7
20260503004600 32 0.0 0.0 0.00 0.00 0.00 32 1004.6
20260503003556 32 0.0 0.0 0.00 0.00 0.00 32 1004.6
20260503002551 32 0.0 0.0 0.00 0.00 0.00 32 1004.5
20260503001547 32 0.0 0.0 0.00 0.00 0.00 33 1004.7
20260503000543 32 0.0 0.0 0.00 0.00 0.00 33 1004.8
20260502233530 33 0.0 0.0 0.00 0.00 0.00 37 1005.0
20260502232526 33 0.0 0.0 0.00 0.00 0.00 39 1005.0
20260502231522 33 0.0 0.0 0.00 0.00 0.00 42 1005.0
20260502225514 33 0.0 0.0 0.00 0.00 0.00 47 1004.9
20260502224510 33 0.0 0.0 0.00 0.00 0.00 47 1004.9
20260502223506 33 0.0 0.0 0.00 0.00 0.00 47 1004.8
20260502222501 33 0.0 0.0 0.00 0.00 0.00 47 1004.7
20260502221458 33 0.0 0.0 0.00 0.00 0.00 47 1004.8
20260502220454 33 0.0 0.0 0.00 0.00 0.00 47 1004.8
20260502215450 33 0.0 0.0 0.00 0.00 0.00 48 1004.8
20260502214445 33 0.0 0.0 0.00 0.00 0.00 47 1005.0
20260502213441 33 0.0 0.0 0.00 0.00 0.00 48 1004.9
20260502212437 33 0.0 0.0 0.00 0.00 0.00 49 1004.8
20260502211433 33 0.0 0.0 0.00 0.00 0.00 49 1005.0
20260502210430 33 0.0 0.0 0.00 0.00 0.00 49 1005.0
20260502204421 33 0.0 0.0 0.00 0.00 0.00 47 1004.6
20260502203417 33 0.0 0.0 0.00 0.00 0.00 47 1004.8
20260502202413 33 0.0 0.0 0.00 0.00 0.00 47 1004.4
20260502201410 33 0.0 0.0 0.00 0.00 0.00 47 1003.7
20260502200404 33 0.0 0.0 0.00 0.00 0.00 47 1003.3
20260502195400 33 0.0 0.0 0.00 0.00 0.00 47 1003.1
20260502194356 33 0.0 0.0 0.00 0.00 0.00 47 1003.1
20260502193351 33 0.0 0.0 0.00 0.00 0.00 47 1003.2
20260502192347 33 0.0 0.0 0.00 0.00 0.00 47 1003.2
20260502191344 33 0.0 0.0 0.00 0.00 0.00 47 1003.2
20260502190340 33 0.0 0.0 0.00 0.00 0.00 47 1003.0
20260502185335 33 0.0 0.0 0.00 0.00 0.00 47 1003.2
20260502184331 33 0.0 0.0 0.00 0.00 0.00 47 1003.1
20260502182323 33 0.0 0.0 0.00 0.00 0.00 47 1003.6
20260502181319 33 0.0 0.0 0.00 0.00 0.00 46 1003.7
20260502180315 33 0.0 0.0 0.00 0.00 0.00 46 1003.9
20260502170250 33 0.0 0.0 0.00 0.00 0.00 44 1004.3
20260502163238 33 0.0 0.0 0.00 0.00 0.00 44 1004.7
20260502161230 33 0.0 0.0 0.00 0.00 0.00 45 1005.2
20260502160225 33 0.0 0.0 0.00 0.00 0.00 46 1005.3
20260502152210 33 0.0 0.0 0.00 0.00 0.00 45 1005.3
20260502151204 33 0.0 0.0 0.00 0.00 0.00 44 1004.9
20260502150200 33 0.0 0.0 0.00 0.00 0.00 44 1004.6
20260502130112 32 0.0 0.0 0.00 0.00 0.00 46 1003.6
20260502123059 32 0.0 0.0 0.00 0.00 0.00 46 1003.3
20260502121051 32 0.0 0.0 0.00 0.00 0.00 46 1003.1
20260502115042 32 0.0 0.0 0.00 0.00 0.00 46 1002.4
20260502113035 32 0.0 0.0 0.00 0.00 0.00 47 1002.3
20260502112030 32 0.0 0.0 0.00 0.00 0.00 47 1002.3
20260502111026 32 0.0 0.0 0.00 0.00 0.00 47 1002.3
20260502110022 32 0.0 0.0 0.00 0.00 0.00 47 1002.3
20260502104014 32 0.0 0.0 0.00 0.00 0.00 47 1001.9
20260502103010 32 0.0 0.0 0.00 0.00 0.00 47 1002.1
20260502101001 32 0.0 0.0 0.00 0.00 0.00 47 1001.9
20260502090937 31 0.0 0.0 0.00 0.00 0.00 46 1001.3
20260502070836 30 0.0 0.0 0.00 0.00 0.00 40 1002.1
20260502065831 30 0.0 0.0 0.00 0.00 0.00 38 1002.3
20260502064826 30 0.0 0.0 0.00 0.00 0.00 37 1002.3
20260502063822 30 0.0 0.0 0.00 0.00 0.00 34 1002.4
20260502062818 30 0.0 0.0 0.00 0.00 0.00 43 1002.4
20260502061814 30 0.0 0.0 0.00 0.00 0.00 40 1002.5
20260502060810 30 0.0 0.0 0.00 0.00 0.00 33 1002.7
20260502054801 30 0.0 0.0 0.00 0.00 0.00 36 1002.7
20260502053758 30 0.0 0.0 0.00 0.00 0.00 40 1002.9
20260502052754 30 0.0 0.0 0.00 0.00 0.00 43 1002.9
20260502051750 30 0.0 0.0 0.00 0.00 0.00 39 1002.9
20260502050745 30 0.0 0.0 0.00 0.00 0.00 31 1002.6
20260502045741 31 0.0 0.0 0.00 0.00 0.00 35 1002.2
20260502044737 30 0.0 0.0 0.00 0.00 0.00 32 1002.3
20260502042728 31 0.0 0.0 0.00 0.00 0.00 33 1002.5
20260502041725 31 0.0 0.0 0.00 0.00 0.00 35 1002.6
20260502040721 31 0.0 0.0 0.00 0.00 0.00 34 1003.1
20260502035717 31 0.0 0.0 0.00 0.00 0.00 30 1003.0
20260502034713 31 0.0 0.0 0.00 0.00 0.00 30 1003.0